This is the latest recevied weather packets stored in our database for station/object UHMM. If no packets are shown the sender has not sent any weather packets the latest 10 day(s).
| Time | Temp. | Humidity | Pressure | Rain* | Wind** | Luminosity | Snow |
|---|---|---|---|---|---|---|---|
| 1777861813 | 3.89° C | 55% | 1004 hPa | - | - | - | - |
| 1777860013 | 3.89° C | 51% | 1004 hPa | - | - | - | - |
| 1777858213 | 3.89° C | 51% | 1004 hPa | - | - | - | - |
| 1777856418 | 3.89° C | 51% | 1004 hPa | - | - | - | - |
| 1777854618 | 2.78° C | 55% | 1004 hPa | - | - | - | - |
| 1777852813 | 2.78° C | 47% | 1004 hPa | - | - | - | - |
| 1777851013 | 2.78° C | 51% | 1004 hPa | - | - | - | - |
| 1777849218 | 2.78° C | 47% | 1004 hPa | - | - | - | - |
| 1777847419 | 0.56° C | 59% | 1004 hPa | - | - | - | - |
| 1777845633 | 0° C | 69% | 1004 hPa | - | - | - | - |
| 1777843813 | -2.22° C | 79% | 1004 hPa | - | - | - | - |
| 1777842009 | -3.33° C | 73% | 1005 hPa | - | - | - | - |
| 1777840213 | -3.33° C | 73% | 1005 hPa | - | - | - | - |
| 1777836616 | -6.11° C | 92% | 1005 hPa | - | - | - | - |
| 1777834845 | -7.22° C | 92% | 1004 hPa | - | - | - | - |
| 1777833008 | -7.22° C | 92% | 1004 hPa | - | - | - | - |
| 1777831210 | -7.22° C | 92% | 1004 hPa | - | - | - | - |
| 1777829408 | -7.22° C | 92% | 1004 hPa | - | - | - | - |
| 1777827609 | -4.44° C | 79% | 1004 hPa | - | - | - | - |
| 1777825825 | -4.44° C | 79% | 1004 hPa | - | - | - | - |
| 1777822218 | -4.44° C | 79% | 1004 hPa | - | - | - | - |
| 1777820418 | -4.44° C | 85% | 1004 hPa | - | - | - | - |
| 1777818611 | -4.44° C | 85% | 1004 hPa | - | - | - | - |
| 1777816810 | -2.22° C | 74% | 1004 hPa | - | - | - | - |
| 1777813208 | -2.22° C | 79% | 1004 hPa | - | - | - | - |
* Rain since midnight (hover to see other rain measurements)
** Current wind speed in m/s (hover to see current wind gust speed)